Track ONEWEB-0168 now! 10-day predictions ONEWEB-0168 is classified as:
1 48068U 21025AC 21104.83334491 -.01062039 00000-0 -30401-1 0 9991 2 48068 87.3920 342.8067 0006199 187.6300 25.2936 15.38557469 4427